Mitchell, SD

6:19 AM CDT on September 20, 2017 (GMT -0500)
Mitchell Municipal

Weather History for KMHE - April, 2013

Change the Weather History Date:

Monday, April 22, 2013

  Actual Average Record
Temperature  
Mean Temperature 31 °F 51 °F  
Max Temperature 33 °F 64 °F 93 °F (1990)
Min Temperature 29 °F 38 °F 23 °F (1927)
Degree Days  
Heating Degree Days 34 14  
Month to date heating degree days 646 419  
Since 1 July heating degree days 7250 6899  
Cooling Degree Days 0 0  
Month to date cooling degree days 0 0  
Year to date cooling degree days 0 0  
Moisture  
Dew Point 28 °F    
Average Humidity 85    
Maximum Humidity 92    
Minimum Humidity 78    
Precipitation  
Precipitation 0.46 in 0.09 in 2.10 in (2001)
Month to date precipitation 2.16 1.39  
Year to date precipitation 4.53 3.01  
Snow  
Snow 5.10 in - 5.10 in (2013)
Month to date snowfall 19.2  
Since 1 July snowfall 50.5  
Snow Depth -    
Sea Level Pressure  
Sea Level Pressure 30.27 in    
Wind  
Wind Speed 16 mph (North)    
Max Wind Speed 25 mph    
Max Gust Speed 53 mph    
T = Trace of Precipitation, MM = Missing Value Source: NWS Daily Summary

Daily Weather History Graph

Daily Weather History Graph

Search for Another Location

Airport or City:

Trip Planner

Search our weather history database for the weather conditions in past years. The results will help you decide how hot, cold, wet, or windy it might be!

Date:

Astronomy

Apr. 22, 2013 Rise Set
Actual Time 6:37 AM CDT 8:24 PM CDT
Civil Twilight 6:06 AM CDT 8:55 PM CDT
Nautical Twilight 5:29 AM CDT 9:32 PM CDT
Astronomical Twilight 4:49 AM CDT 10:13 PM CDT
Moon 5:09 PM CDT (4/22) 4:39 AM CDT (4/22)
Length of Visible Light 14h 48m
Length of Day
13h 47m
Waxing Gibbous, 88% of the Moon is Illuminated
Apr 22
Waxing Gibbous
Apr 25
Full
May 2
Last Quarter
May 9
New
May 17
First Quarter

Hourly Weather History & Observations

Time (CDT) Temp. Windchill Dew Point Humidity Pressure Visibility Wind Dir Wind Speed Gust Speed Precip Events Conditions
12:53 AM 32.0 °F 27.5 °F 28.9 °F 88% 30.22 in - North 4.6 mph - N/A   Clear
1:53 AM 30.9 °F 26.2 °F 28.0 °F 89% 30.22 in - NE 4.6 mph - N/A   Clear
2:53 AM 30.9 °F 27.5 °F 28.0 °F 89% 30.21 in - NE 3.5 mph - N/A   Clear
3:53 AM 30.9 °F 25.2 °F 28.0 °F 89% 30.21 in - NNE 5.8 mph - N/A   Clear
4:53 AM 32.0 °F 24.2 °F 28.0 °F 85% 30.23 in - North 9.2 mph - N/A   Overcast
5:53 AM 32.0 °F 23.6 °F 28.0 °F 85% 30.20 in - NE 10.4 mph - N/A   Overcast
6:30 AM 32.0 °F 22.5 °F 28.4 °F 87% 30.18 in - NNE 12.7 mph - N/A   Overcast
6:53 AM 30.9 °F 19.8 °F 28.0 °F 89% 30.21 in - NNE 16.1 mph - 0.00 in Snow Light Snow
7:42 AM 30.2 °F 19.3 °F 28.4 °F 93% 30.21 in - NNE 15.0 mph - 0.00 in Snow Snow
7:53 AM 30.0 °F 19.1 °F 28.0 °F 92% 30.25 in - NNE 15.0 mph - 0.00 in Snow Snow
8:14 AM 30.2 °F 18.5 °F 28.4 °F 93% 30.20 in - NNE 17.3 mph - 0.00 in Snow Snow
8:33 AM 30.2 °F 18.9 °F 28.4 °F 93% 30.21 in - NNE 16.1 mph - 0.00 in Snow Snow
8:53 AM 30.0 °F 18.3 °F 28.0 °F 92% 30.25 in - NNE 17.3 mph - 0.00 in Snow Snow
9:42 AM 30.2 °F 17.8 °F 26.6 °F 86% 30.21 in - NNE 19.6 mph - 0.00 in Snow Light Snow
9:53 AM 30.0 °F 18.3 °F 27.0 °F 88% 30.27 in - NNE 17.3 mph - 0.00 in Snow Light Snow
10:28 AM 30.2 °F 17.8 °F 26.6 °F 86% 30.22 in - NNE 19.6 mph - 0.00 in Snow Light Snow
10:53 AM 30.0 °F 18.3 °F 27.0 °F 88% 30.29 in - North 17.3 mph - 0.00 in Snow Light Snow
11:30 AM 30.2 °F 17.1 °F 26.6 °F 86% 30.23 in - North 21.9 mph - 0.01 in Snow Snow
11:53 AM 30.0 °F 17.9 °F 27.0 °F 88% 30.30 in - North 18.4 mph - 0.01 in   Overcast
12:53 PM 30.9 °F 19.1 °F 28.0 °F 89% 30.28 in - NNE 18.4 mph 26.5 mph N/A   Overcast
1:00 PM 30.2 °F 18.5 °F 28.4 °F 93% 30.23 in - NNE 17.3 mph 26.5 mph N/A   Overcast
1:14 PM 30.2 °F 18.5 °F 28.4 °F 93% 30.23 in - NNE 17.3 mph - N/A   Overcast
1:27 PM 30.2 °F 18.1 °F 28.4 °F 93% 30.23 in - NNE 18.4 mph - N/A   Overcast
1:53 PM 30.9 °F 20.2 °F 28.0 °F 89% 30.28 in - North 15.0 mph - N/A   Overcast
2:07 PM 30.2 °F 18.9 °F 28.4 °F 93% 30.24 in - North 16.1 mph - N/A   Unknown
2:37 PM 30.2 °F 18.1 °F 28.4 °F 93% 30.25 in - North 18.4 mph - N/A   Overcast
2:53 PM 30.9 °F 19.1 °F 28.0 °F 89% 30.30 in - North 18.4 mph 25.3 mph N/A   Overcast
3:42 PM 30.2 °F 17.8 °F 28.4 °F 93% 30.25 in - North 19.6 mph - 0.00 in Snow Snow
3:51 PM 32.0 °F 20.1 °F 28.4 °F 87% 30.25 in - North 19.6 mph 25.3 mph 0.00 in Snow Snow
3:53 PM 30.9 °F 18.4 °F 28.0 °F 89% 30.30 in - North 20.7 mph 26.5 mph 0.00 in Snow Snow
4:04 PM 30.2 °F 17.8 °F 28.4 °F 93% 30.25 in - North 19.6 mph - 0.00 in   Unknown
4:35 PM 32.0 °F 20.1 °F 28.4 °F 87% 30.25 in - North 19.6 mph - 0.00 in Snow Light Snow
4:53 PM 32.0 °F 20.8 °F 28.0 °F 85% 30.31 in - North 17.3 mph 26.5 mph 0.00 in   Overcast
5:22 PM 32.0 °F 20.1 °F 28.4 °F 87% 30.27 in - North 19.6 mph 27.6 mph 0.00 in   Overcast
5:29 PM 33.8 °F 21.9 °F 28.4 °F 81% 30.27 in - North 21.9 mph - 0.00 in   Overcast
5:53 PM 32.0 °F 19.5 °F 27.0 °F 82% 30.32 in - North 21.9 mph 27.6 mph 0.00 in   Overcast
6:53 PM 32.0 °F 19.8 °F 27.0 °F 82% 30.34 in - North 20.7 mph - N/A   Overcast
7:53 PM 30.9 °F 20.7 °F 27.0 °F 85% 30.36 in - North 13.8 mph - N/A   Overcast
8:53 PM 32.0 °F 23.0 °F 27.0 °F 82% 30.37 in - North 11.5 mph - N/A   Overcast
9:29 PM 32.0 °F 22.5 °F 26.6 °F 80% 30.33 in - North 12.7 mph - N/A   Overcast
9:48 PM 32.0 °F 21.2 °F 26.6 °F 80% 30.34 in - North 16.1 mph 21.9 mph N/A   Overcast
9:53 PM 32.0 °F 21.6 °F 27.0 °F 82% 30.39 in - North 15.0 mph - N/A   Overcast
10:07 PM 32.0 °F 19.2 °F 26.6 °F 80% 30.35 in - WSW 23.0 mph - N/A   Overcast
10:23 PM 30.2 °F 18.1 °F 26.6 °F 86% 30.35 in - North 18.4 mph - N/A   Overcast
10:32 PM 30.2 °F 18.9 °F 26.6 °F 86% 30.34 in - North 16.1 mph - N/A   Unknown
10:53 PM 30.9 °F 20.2 °F 26.1 °F 82% 30.39 in - North 15.0 mph - N/A   Unknown
11:53 PM 30.9 °F 22.8 °F 25.0 °F 79% 30.41 in - NNW 9.2 mph - N/A   Overcast